Great Bend, KS

8:28 AM CST on February 12, 2016 (GMT -0600)
Great Bend Municipal

Weather History for KGBD - March, 2014

Change the Weather History Date:

Sunday, March 16, 2014

  Actual Average Record
Temperature  
Mean Temperature 36 °F -  
Max Temperature 46 °F 57 °F 87 °F (2015)
Min Temperature 26 °F 32 °F 15 °F (2002)
Degree Days  
Heating Degree Days 29    
Moisture  
Dew Point 17 °F    
Average Humidity 50    
Maximum Humidity 69    
Minimum Humidity 29    
Precipitation  
Precipitation 0.00 in - - ()
Sea Level Pressure  
Sea Level Pressure 30.19 in    
Wind  
Wind Speed 23 mph (NNE)    
Max Wind Speed 32 mph    
Max Gust Speed 40 mph    
Visibility 10 miles    
Events      
Averages and records for this station are not official NWS values.
T = Trace of Precipitation, MM = Missing Value Source: NWS Daily Summary

Daily Weather History Graph

Daily Weather History Graph

Search for Another Location

Airport or City:

Trip Planner

Search our weather history database for the weather conditions in past years. The results will help you decide how hot, cold, wet, or windy it might be!

Date:

Astronomy

Mar. 16, 2014 Rise Set
Actual Time 7:45 AM CDT 7:43 PM CDT
Civil Twilight 7:18 AM CDT 8:09 PM CDT
Nautical Twilight 6:48 AM CDT 8:40 PM CDT
Astronomical Twilight 6:16 AM CDT 9:11 PM CDT
Moon 8:01 PM CDT (3/16) 7:29 AM CDT (3/16)
Length of Visible Light 12h 51m
Length of Day
11h 58m
Full, 100% of the Moon is Illuminated
Mar 16
Full
Mar 16
Full
Mar 23
Last Quarter
Mar 30
New
Apr 7
First Quarter

Hourly Weather History & Observations

Time (CDT) Temp. Windchill Dew Point Humidity Pressure Visibility Wind Dir Wind Speed Gust Speed Precip Events Conditions
12:15 AM 37.4 °F 24.6 °F 21.2 °F 52% 30.10 in 10.0 mi North 32.2 mph 39.1 mph N/A   Clear
12:35 AM 35.6 °F 22.5 °F 21.2 °F 56% 30.10 in 10.0 mi North 29.9 mph 35.7 mph N/A   Clear
12:55 AM 35.6 °F 22.7 °F 21.2 °F 56% 30.12 in 10.0 mi North 28.8 mph 36.8 mph N/A   Clear
1:15 AM 35.6 °F 23.2 °F 21.2 °F 56% 30.13 in 10.0 mi North 26.5 mph 38.0 mph N/A   Clear
1:35 AM 33.8 °F 20.3 °F 21.2 °F 60% 30.14 in 10.0 mi North 28.8 mph 36.8 mph N/A   Clear
1:55 AM 33.8 °F 21.3 °F 21.2 °F 60% 30.14 in 10.0 mi North 24.2 mph 32.2 mph N/A   Clear
2:15 AM 33.8 °F 20.3 °F 21.2 °F 60% 30.15 in 10.0 mi North 28.8 mph 36.8 mph N/A   Clear
2:35 AM 32.0 °F 18.4 °F 21.2 °F 64% 30.16 in 10.0 mi North 26.5 mph 33.4 mph N/A   Clear
2:55 AM 32.0 °F 18.4 °F 21.2 °F 64% 30.16 in 10.0 mi North 26.5 mph 34.5 mph N/A   Partly Cloudy
3:15 AM 32.0 °F 18.4 °F 21.2 °F 64% 30.16 in 10.0 mi North 26.5 mph 34.5 mph N/A   Mostly Cloudy
3:35 AM 32.0 °F 18.9 °F 21.2 °F 64% 30.16 in 10.0 mi North 24.2 mph 28.8 mph N/A   Scattered Clouds
3:55 AM 30.2 °F 16.2 °F 21.2 °F 69% 30.17 in 10.0 mi North 25.3 mph 33.4 mph N/A   Clear
4:15 AM 30.2 °F 15.9 °F 21.2 °F 69% 30.18 in 10.0 mi North 26.5 mph 32.2 mph N/A   Mostly Cloudy
4:35 AM 33.8 °F 21.3 °F 23.0 °F 65% 30.18 in 10.0 mi North 24.2 mph 35.7 mph N/A   Overcast
4:55 AM 32.0 °F 17.4 °F 23.0 °F 69% 30.17 in 10.0 mi North 31.1 mph 40.3 mph N/A   Overcast
5:15 AM 30.2 °F 15.7 °F 21.2 °F 69% 30.17 in 10.0 mi North 27.6 mph 36.8 mph N/A   Overcast
5:35 AM 30.2 °F 15.4 °F 21.2 °F 69% 30.18 in 10.0 mi North 28.8 mph 36.8 mph N/A   Overcast
5:55 AM 30.2 °F 15.4 °F 21.2 °F 69% 30.19 in 10.0 mi North 28.8 mph 35.7 mph N/A   Overcast
6:15 AM 30.2 °F 15.2 °F 21.2 °F 69% 30.20 in 10.0 mi North 29.9 mph 36.8 mph N/A   Overcast
6:35 AM 30.2 °F 15.9 °F 21.2 °F 69% 30.21 in 10.0 mi North 26.5 mph 34.5 mph N/A   Overcast
6:55 AM 30.2 °F 16.2 °F 19.4 °F 64% 30.22 in 10.0 mi North 25.3 mph 34.5 mph N/A   Overcast
7:15 AM 30.2 °F 16.5 °F 19.4 °F 64% 30.23 in 10.0 mi North 24.2 mph 32.2 mph N/A   Overcast
7:35 AM 30.2 °F 15.9 °F 19.4 °F 64% 30.24 in 10.0 mi North 26.5 mph 35.7 mph N/A   Overcast
7:55 AM 28.4 °F 13.8 °F 17.6 °F 64% 30.24 in 10.0 mi North 25.3 mph 29.9 mph N/A   Overcast
8:15 AM 28.4 °F 13.8 °F 17.6 °F 64% 30.25 in 10.0 mi North 25.3 mph 28.8 mph N/A   Overcast
8:35 AM 28.4 °F 15.4 °F 17.6 °F 64% 30.26 in 10.0 mi North 19.6 mph 28.8 mph N/A   Overcast
8:55 AM 30.2 °F 15.7 °F 17.6 °F 60% 30.28 in 10.0 mi North 27.6 mph 33.4 mph N/A   Overcast
9:15 AM 30.2 °F 16.5 °F 17.6 °F 60% 30.29 in 10.0 mi North 24.2 mph 31.1 mph N/A   Overcast
9:35 AM 30.2 °F 15.9 °F 17.6 °F 60% 30.30 in 10.0 mi North 26.5 mph 33.4 mph N/A   Overcast
9:55 AM 30.2 °F 15.9 °F 17.6 °F 60% 30.31 in 10.0 mi North 26.5 mph 33.4 mph N/A   Overcast
10:15 AM 30.2 °F 16.5 °F 17.6 °F 60% 30.31 in 10.0 mi North 24.2 mph - N/A   Overcast
10:35 AM 32.0 °F 19.8 °F 17.6 °F 55% 30.31 in 10.0 mi NNE 20.7 mph 29.9 mph N/A   Overcast
10:55 AM 33.8 °F 22.5 °F 17.6 °F 52% 30.32 in 10.0 mi North 19.6 mph 27.6 mph N/A   Mostly Cloudy
11:15 AM 35.6 °F 24.2 °F 17.6 °F 48% 30.31 in 10.0 mi North 21.9 mph 31.1 mph N/A   Partly Cloudy
11:35 AM 35.6 °F 23.7 °F 15.8 °F 44% 30.31 in 10.0 mi North 24.2 mph 29.9 mph N/A   Clear
11:55 AM 37.4 °F 25.9 °F 15.8 °F 41% 30.30 in 10.0 mi North 25.3 mph 31.1 mph N/A   Clear
12:15 PM 37.4 °F 27.5 °F 15.8 °F 41% 30.30 in 10.0 mi NNE 18.4 mph 26.5 mph N/A   Clear
12:35 PM 39.2 °F 29.0 °F 15.8 °F 39% 30.29 in 10.0 mi North 21.9 mph - N/A   Clear
12:55 PM 39.2 °F 29.3 °F 14.0 °F 36% 30.28 in 10.0 mi North 20.7 mph 27.6 mph N/A   Clear
1:15 PM 41.0 °F 32.5 °F 15.8 °F 36% 30.27 in 10.0 mi North 17.3 mph 26.5 mph N/A   Clear
1:35 PM 41.0 °F 32.2 °F 15.8 °F 36% 30.26 in 10.0 mi North 18.4 mph 23.0 mph N/A   Clear
1:55 PM 42.8 °F 34.5 °F 15.8 °F 34% 30.25 in 10.0 mi NNE 18.4 mph 27.6 mph N/A   Clear
2:15 PM 42.8 °F 35.8 °F 15.8 °F 34% 30.24 in 10.0 mi North 13.8 mph 28.8 mph N/A   Clear
2:35 PM 42.8 °F 35.1 °F 15.8 °F 34% 30.23 in 10.0 mi NNE 16.1 mph 23.0 mph N/A   Clear
2:55 PM 44.6 °F 36.6 °F 15.8 °F 31% 30.21 in 10.0 mi NNE 19.6 mph 24.2 mph N/A   Clear
3:15 PM 44.6 °F 36.9 °F 15.8 °F 31% 30.20 in 10.0 mi North 18.4 mph 26.5 mph N/A   Clear
3:35 PM 44.6 °F 36.4 °F 15.8 °F 31% 30.19 in 10.0 mi NNE 20.7 mph - N/A   Clear
3:55 PM 44.6 °F 37.2 °F 15.8 °F 31% 30.18 in 10.0 mi NNE 17.3 mph 25.3 mph N/A   Clear
4:15 PM 46.4 °F 40.4 °F 15.8 °F 29% 30.18 in 10.0 mi North 13.8 mph 24.2 mph N/A   Clear
4:35 PM 46.4 °F 39.2 °F 15.8 °F 29% 30.18 in 10.0 mi North 18.4 mph 24.2 mph N/A   Clear
4:55 PM 46.4 °F 40.7 °F 15.8 °F 29% 30.17 in 10.0 mi North 12.7 mph 21.9 mph N/A   Clear
5:15 PM 46.4 °F 41.5 °F 15.8 °F 29% 30.16 in 10.0 mi North 10.4 mph 18.4 mph N/A   Clear
5:35 PM 46.4 °F 40.4 °F 15.8 °F 29% 30.15 in 10.0 mi NNE 13.8 mph 21.9 mph N/A   Clear
5:55 PM 44.6 °F 38.8 °F 15.8 °F 31% 30.14 in 10.0 mi North 11.5 mph - N/A   Clear
6:15 PM 44.6 °F 38.4 °F 15.8 °F 31% 30.14 in 10.0 mi North 12.7 mph - N/A   Clear
6:35 PM 44.6 °F 38.8 °F 15.8 °F 31% 30.14 in 10.0 mi North 11.5 mph 17.3 mph N/A   Clear
6:55 PM 44.6 °F 39.7 °F 15.8 °F 31% 30.14 in 10.0 mi North 9.2 mph - N/A   Clear
7:15 PM 42.8 °F 37.0 °F 15.8 °F 34% 30.13 in 10.0 mi North 10.4 mph - N/A   Clear
7:35 PM 39.2 °F 34.2 °F 15.8 °F 39% 30.13 in 10.0 mi North 6.9 mph - N/A   Clear
7:55 PM 37.4 °F 31.4 °F 14.0 °F 38% 30.14 in 10.0 mi NNE 8.1 mph - N/A   Clear
8:15 PM 35.6 °F 32.8 °F 15.8 °F 44% 30.13 in 10.0 mi ENE 3.5 mph - N/A   Clear
8:35 PM 37.4 °F 34.9 °F 15.8 °F 41% 30.12 in 10.0 mi East 3.5 mph - N/A   Clear
8:55 PM 35.6 °F 30.7 °F 15.8 °F 44% 30.11 in 10.0 mi ESE 5.8 mph - N/A   Clear
9:15 PM 32.0 °F - 14.0 °F 48% 30.12 in 10.0 mi Calm Calm - N/A   Clear
9:35 PM 32.0 °F 28.7 °F 15.8 °F 51% 30.11 in 10.0 mi ESE 3.5 mph - N/A   Clear
9:55 PM 30.2 °F 26.7 °F 12.2 °F 47% 30.11 in 10.0 mi SSE 3.5 mph - N/A   Clear
10:15 PM 28.4 °F 24.6 °F 12.2 °F 51% 30.10 in 10.0 mi SSE 3.5 mph - N/A   Clear
10:35 PM 28.4 °F 24.6 °F 14.0 °F 55% 30.10 in 10.0 mi SSE 3.5 mph - N/A   Clear
10:55 PM 28.4 °F 23.3 °F 14.0 °F 55% 30.09 in 10.0 mi SSE 4.6 mph - N/A   Clear
11:15 PM 26.6 °F 20.0 °F 12.2 °F 55% 30.08 in 10.0 mi South 5.8 mph - N/A   Clear
11:35 PM 26.6 °F 22.6 °F 15.8 °F 64% 30.07 in 10.0 mi South 3.5 mph - N/A   Clear
11:55 PM 28.4 °F - 14.0 °F 55% 30.07 in 10.0 mi Calm Calm - N/A   Clear